Flag for U.S.A. Weather past 2 weeks in Hampton, Virginia, U.S.A.

Now
46 °F

Sunny.


Feels Like: 43 °F
Forecast: 45 / 65 °F
Wind: 5 mph from Southeast

Location: Langley Air Force Base

Current Time: Apr 1, 2015 at 8:57:53 PM

Latest Report: Apr 1, 2015 at 7:58 PM


Visibility: 10 mi

Pressure: 30.22 "Hg

Humidity: 48%

Dew point: 27 °F

Location of HamptonLocation

Historic Weather in Hampton — Graph

°F

Hampton temperature yesterday

Maximum temperature yesterday: 70 °F (at 5:58 PM)
Minimum temperature yesterday: 36 °F (at 6:58 AM)
Average temperature yesterday: 57 °F

Past Weeks' High & Low Weather Summary

 TemperatureHumidityPressure
High70 °F (Mar 31, 5:58 PM)100% (Mar 20, 10:03 AM)30.42 "Hg (Mar 20, 10:03 AM)
Low28 °F (Mar 29, 6:58 AM)21% (Mar 29, 5:58 PM)29.67 "Hg (Mar 31, 5:58 PM)
Average46 °F64%30.09 "Hg
* Reported Mar 17 6:58 PM — Apr 1 6:58 PM, Hampton, Weather by CustomWeather, © 2015

Note: Actual official high and low records may vary slightly from our data, if they occured in-between our weather recording intervals... More about our weather records

Advertising

Hampton weather history for previous 24 hours

 ConditionsComfort  
Time TempWeatherWind HumidityBarometerVisibility
6:58 PM
Wed, Apr 1
47 °FSunny.5 mph48%30.20 "Hg10 mi
5:58 PM50 °FSunny.5 mph44%30.19 "Hg10 mi
4:58 PM50 °FSunny.5 mph43%30.17 "Hg10 mi
3:58 PM50 °FSunny.9 mph41%30.17 "Hg10 mi
2:58 PM50 °FSunny.12 mph38%30.16 "Hg10 mi
1:58 PM50 °FSunny.14 mph47%30.16 "Hg10 mi
12:58 PM49 °FSunny.15 mph49%30.15 "Hg10 mi
11:58 AM49 °FSunny.14 mph48%30.14 "Hg10 mi
10:58 AM47 °FSunny.15 mph50%30.15 "Hg10 mi
9:58 AM46 °FSunny.17 mph46%30.10 "Hg10 mi
8:58 AM45 °FSunny.18 mph49%30.09 "Hg10 mi
7:58 AM43 °FSunny.17 mph61%30.08 "Hg10 mi
6:58 AMN/AClear.20 mphN/AN/A10 mi
5:58 AM43 °FClear.20 mph57%30.00 "Hg10 mi
4:58 AM43 °FClear.17 mph66%29.96 "Hg10 mi
3:58 AM48 °FClear.14 mph66%29.93 "Hg9 mi
2:58 AM50 °FPassing clouds.15 mph67%29.90 "Hg10 mi
1:58 AM54 °FClear.13 mph72%29.87 "Hg10 mi
12:58 AM55 °FClear.15 mph63%29.82 "Hg10 mi
11:58 PM
Tue, Mar 31
57 °FPartly cloudy.14 mph59%29.80 "Hg10 mi
10:58 PM70 °FClear.23 mph25%29.67 "Hg10 mi
9:58 PM70 °FClear.23 mph25%29.67 "Hg10 mi
8:58 PM70 °FClear.23 mph25%29.67 "Hg10 mi
Weather by CustomWeather, © 2015

See weather overviewHow to use our weather pages